Theta_e
324 322 321 320 320 315 312 305 304 304 304 305 305 305 305 305 305 305 305 306 305 305 304 304 304 303 302 301 301 301 300 301 301 303 303 302 301 301 300 300 300 300 303
323 321 320 321 318 312 306 305 305 305 306 306 306 305 306 306 306 306 306 306 306 305 304 304 304 303 301 301 301 301 301 301 301 300 300 300 300 299 299 299 298 299 302
323 322 320 319 312 307 306 306 306 307 307 307 306 306 306 306 306 306 306 306 306 306 305 304 304 302 301 300 300 300 300 299 300 301 300 299 299 299 298 298 298 299 302
322 321 319 314 309 308 307 307 307 307 306 307 305 304 305 305 305 305 305 306 306 306 306 305 303 301 300 298 298 299 299 300 300 300 299 299 298 298 298 298 297 299 302
321 319 316 309 309 309 308 308 307 306 305 304 303 305 305 305 304 304 305 304 305 305 305 302 301 301 299 299 298 298 297 297 297 297 297 298 298 298 297 297 297 300 302
319 317 310 309 309 309 308 307 306 304 304 304 304 305 305 304 304 304 304 303 302 302 301 301 302 301 301 300 300 299 297 296 296 297 297 297 297 298 298 297 297 300 301
318 311 309 309 309 308 308 307 305 304 303 304 304 305 304 304 304 304 304 302 301 301 301 302 303 302 301 301 301 300 298 297 296 296 297 297 296 296 297 296 297 300 303
313 309 309 309 309 308 306 306 304 304 304 305 304 304 304 304 304 304 303 301 300 300 300 302 302 303 302 301 301 300 300 299 297 296 295 296 296 296 296 296 297 300 303
310 310 310 309 307 306 306 305 305 305 304 304 304 304 305 304 304 303 303 301 300 299 300 301 301 302 302 302 301 300 300 300 298 296 295 297 296 295 295 295 296 300 302
310 309 309 304 306 307 307 305 304 304 304 304 305 306 305 304 304 303 302 301 301 300 299 301 301 302 302 302 300 300 300 300 299 298 296 296 296 295 296 296 297 300 301
310 307 305 307 307 306 305 304 304 304 304 305 306 306 305 304 304 302 301 301 301 300 300 301 301 301 302 302 301 300 299 300 299 297 296 296 296 296 296 297 298 300 302
305 305 307 306 306 306 304 304 304 304 305 305 305 305 304 304 301 301 301 301 300 300 300 300 301 301 301 300 301 300 300 299 298 298 297 296 296 296 297 297 299 300 302
305 306 305 306 306 304 304 304 304 305 304 305 305 304 303 302 301 300 300 300 300 300 300 301 301 300 300 300 300 299 299 298 298 297 297 296 296 296 297 298 299 301 302
305 305 305 304 302 301 301 304 305 304 304 305 304 303 302 302 301 300 300 300 301 301 301 301 300 299 300 300 299 299 298 297 296 296 297 297 296 296 298 299 300 302 303
305 305 304 303 304 305 305 305 304 303 304 304 303 302 301 301 300 298 298 298 298 299 299 300 299 299 299 299 298 297 297 296 296 295 296 296 296 296 298 299 300 301 302
305 304 304 304 305 305 305 305 304 303 304 303 302 301 301 301 299 298 299 299 299 299 299 299 299 299 298 297 296 295 295 295 294 294 295 296 296 296 297 299 300 301 302
304 304 304 304 304 305 305 304 303 304 304 303 302 301 301 300 299 299 299 300 300 300 299 299 298 297 296 295 295 294 294 293 294 294 294 295 295 296 297 299 300 301 302
307 304 303 304 305 305 304 303 303 304 303 303 302 301 301 300 299 299 300 300 299 299 298 297 296 295 294 294 293 293 292 292 293 293 293 294 295 296 297 298 300 301 302
305 303 304 304 305 304 303 302 304 304 303 302 302 301 300 299 299 300 300 298 297 297 296 295 294 294 293 293 292 292 292 292 292 292 293 294 295 295 296 298 300 301 302
303 304 304 304 304 303 302 302 304 303 303 302 301 300 298 298 299 300 298 297 296 295 295 294 294 293 293 292 292 292 292 292 292 292 293 294 295 295 296 298 300 301 302
303 304 304 304 303 302 300 303 304 303 302 301 299 298 298 298 299 298 297 296 295 295 294 294 294 294 293 293 293 293 293 293 293 293 293 294 295 296 297 299 300 301 303
304 304 303 303 302 300 302 303 302 301 300 298 298 298 299 300 299 297 297 296 296 295 295 295 295 294 294 295 295 295 295 295 294 293 293 294 296 297 298 300 300 302 303
303 303 303 301 300 301 301 301 300 297 297 298 298 299 300 299 298 297 297 297 296 296 296 295 295 296 296 296 296 297 297 296 295 294 294 295 296 298 299 300 301 301 302
303 303 301 299 300 300 299 296 294 297 298 298 300 300 299 299 298 298 297 297 296 296 296 296 297 297 297 297 298 298 297 297 296 295 296 297 298 299 300 301 302 302 302
303 300 298 299 299 297 294 293 296 298 298 300 300 300 300 299 299 298 297 297 297 296 297 297 297 298 298 298 298 298 297 296 296 295 297 298 300 300 301 301 301 302 303
300 297 297 297 296 294 292 296 299 299 299 300 300 300 300 299 299 298 298 297 297 297 297 298 298 298 298 299 298 298 297 297 296 297 298 299 300 301 301 302 303 303 303
Wind_Speed
6 5 6 9 12 12 12 12 12 11 10 10 11 12 12 12 12 13 15 19 22 24 26 28 30 28 27 26 26 26 26 24 29 30 30 31 31 31 30 28 27 26 22
8 8 9 11 12 10 10 9 8 9 8 10 12 14 13 13 13 16 17 19 22 26 27 30 33 34 30 26 25 27 25 24 27 30 30 29 28 26 25 27 26 23 19
11 10 10 10 9 8 7 6 8 9 10 12 14 15 15 14 15 17 20 24 26 27 28 29 32 34 31 28 23 25 28 29 28 28 30 29 25 31 31 26 25 21 16
10 9 9 9 7 6 6 7 9 12 14 13 15 14 12 16 19 22 25 28 28 29 26 27 31 29 25 24 20 22 25 23 22 25 27 25 28 27 24 26 27 18 15
9 10 8 8 7 7 8 10 12 14 13 14 13 11 15 17 20 21 20 25 26 25 24 28 27 21 19 21 22 23 24 25 25 27 29 29 24 23 24 26 25 22 15
10 8 8 8 8 9 10 12 14 13 12 13 11 15 17 16 19 20 24 25 23 24 26 24 20 18 22 22 23 21 20 23 23 22 24 24 23 21 23 23 20 22 25
10 8 7 7 7 9 11 13 13 13 13 11 14 18 17 18 20 22 25 25 24 24 22 21 20 21 22 23 23 22 21 20 20 20 20 20 21 21 18 22 17 19 19
9 7 7 7 8 11 11 13 11 12 10 14 16 19 21 21 22 24 26 26 24 26 20 19 19 23 24 24 22 23 21 22 19 19 19 20 19 17 18 21 19 18 13
8 7 7 8 9 9 11 10 10 13 14 17 19 22 22 21 22 26 28 28 27 29 20 19 21 24 22 21 21 23 22 20 19 17 16 16 17 17 17 20 16 14 13
7 6 8 8 7 9 11 12 11 14 17 18 20 20 19 20 23 27 28 28 29 29 22 19 21 24 25 23 22 23 24 22 19 16 15 15 17 17 15 14 12 12 12
7 6 5 6 9 11 11 12 13 16 17 18 20 18 16 19 26 29 25 27 28 28 26 23 22 24 25 23 21 22 23 23 21 17 16 15 15 13 10 9 8 11 11
6 4 5 7 8 11 12 10 13 15 18 21 19 16 18 24 28 27 26 27 28 29 27 25 25 24 25 25 23 21 21 20 19 17 14 13 13 10 7 7 8 9 11
4 3 4 7 10 8 10 11 14 18 21 20 16 20 25 25 30 30 30 30 26 24 23 23 24 24 26 26 24 20 18 18 16 15 13 11 11 8 7 6 5 7 6
2 2 5 5 8 11 9 11 16 19 18 15 19 24 26 31 35 34 32 29 26 23 21 24 25 26 27 27 25 21 19 16 14 14 14 9 9 7 5 5 2 3 3
1 2 4 7 5 6 10 12 16 16 16 18 22 24 27 35 36 30 30 30 28 27 28 28 28 27 28 26 23 22 20 16 14 13 12 10 7 8 4 3 1 1 2
1 1 3 3 7 12 10 14 16 16 17 21 23 23 28 33 33 28 29 29 27 24 23 24 26 26 25 23 24 22 20 16 14 13 11 9 7 7 4 1 1 1 1
2 3 4 8 12 14 13 16 17 15 18 21 22 24 30 36 33 28 30 29 25 23 22 23 24 25 24 23 23 21 19 17 13 12 10 8 7 7 4 2 2 2 2
3 4 8 11 12 13 14 17 17 16 21 24 24 27 33 36 33 27 30 29 28 26 26 26 26 24 23 23 21 20 16 15 12 9 8 7 7 10 7 4 4 3 5
2 5 8 12 13 12 16 18 14 17 23 26 28 33 37 38 30 28 30 29 31 31 29 28 26 25 22 20 19 17 14 13 10 8 6 5 8 11 8 6 6 5 6
2 6 11 12 12 15 19 15 14 19 24 26 30 36 38 37 33 33 33 32 31 30 28 26 24 22 20 18 17 15 12 9 6 5 5 5 9 11 9 8 8 8 9
5 8 11 12 14 18 20 14 15 21 23 28 33 33 31 30 32 33 34 32 30 29 26 25 23 20 18 16 13 11 8 6 4 2 5 7 11 13 11 10 11 11 12
7 10 12 15 17 18 15 14 17 22 26 30 32 30 29 30 32 33 32 31 29 27 25 24 22 20 17 13 12 12 9 6 2 2 6 9 12 14 13 12 11 12 12
8 11 14 17 15 16 15 17 21 24 26 30 28 29 30 33 33 32 31 30 28 27 24 22 21 19 15 12 11 11 10 4 1 4 9 13 15 17 15 13 13 12 15
9 13 16 14 15 16 18 21 22 23 27 27 27 29 32 32 32 31 30 28 30 27 24 23 21 19 17 15 13 12 9 6 5 9 15 19 20 18 17 15 13 18 19
12 15 13 13 15 17 19 21 23 25 27 25 29 29 31 31 31 30 28 27 31 31 26 24 22 20 18 16 14 13 11 9 11 16 23 25 22 20 19 17 18 17 19
13 13 13 13 16 18 20 22 24 26 24 25 28 29 29 31 29 28 28 30 33 30 26 23 23 21 21 19 16 14 14 14 17 24 28 26 23 21 20 21 20 21 19
Wind_Direction
216 247 278 287 291 291 303 314 320 332 341 343 349 348 344 333 328 324 323 325 322 325 329 325 331 328 317 307 310 310 305 307 299 302 306 307 307 307 306 303 305 300 295
231 243 258 272 286 303 315 319 331 336 337 335 336 336 335 332 325 318 318 318 314 316 317 317 322 323 321 316 305 307 301 304 299 303 307 314 312 311 314 313 313 301 296
230 245 266 286 297 304 314 323 328 325 326 325 321 322 320 324 322 318 312 309 308 307 308 310 315 321 321 321 314 308 309 305 298 297 307 312 314 314 317 314 316 310 296
235 263 275 286 284 298 314 317 318 319 318 315 310 307 314 320 321 315 310 308 307 306 304 307 315 319 326 334 324 319 314 310 310 306 307 308 315 320 325 327 325 323 316
254 261 276 275 273 287 305 313 317 316 310 314 318 313 318 322 330 329 330 322 315 310 308 309 312 321 328 336 332 328 322 317 307 303 304 309 310 318 320 327 329 333 325
251 260 267 264 276 290 302 310 316 316 310 309 311 317 320 318 325 332 331 333 327 315 311 312 312 323 326 327 328 328 327 325 315 316 310 308 311 317 311 318 322 341 331
245 254 257 270 286 297 308 312 315 312 307 302 310 317 317 315 320 327 332 335 332 324 318 317 318 321 316 316 324 329 332 326 314 308 309 305 312 322 321 322 318 326 325
243 245 260 271 292 307 310 314 309 313 306 307 310 315 316 314 316 323 327 328 331 332 322 323 327 328 318 314 323 328 330 330 321 315 310 307 306 313 313 315 315 325 323
234 253 261 281 302 309 312 319 309 304 304 310 311 313 314 313 315 322 323 323 327 333 326 326 326 334 327 321 320 320 328 333 333 324 312 308 310 310 304 302 307 331 346
237 241 274 291 305 310 309 313 311 313 316 316 318 318 315 313 317 321 321 318 316 326 325 320 325 329 331 327 319 319 320 323 323 329 328 313 314 315 307 292 292 314 331
231 266 276 294 305 307 309 309 310 316 320 322 320 321 322 318 318 320 317 314 313 316 323 323 321 324 330 328 323 315 311 313 317 316 319 314 318 319 314 300 285 300 302
241 260 290 301 308 310 311 311 318 319 324 325 325 332 331 324 326 323 314 314 313 306 308 312 314 317 323 330 324 314 309 305 305 309 314 318 316 319 321 301 292 286 292
238 283 300 311 309 305 314 313 323 327 331 333 338 333 329 332 336 330 320 315 317 310 296 298 306 313 317 321 328 322 316 307 302 300 303 316 311 314 325 311 278 278 286
262 295 315 318 317 317 311 324 333 337 340 340 334 332 336 340 339 334 331 324 318 314 306 298 306 312 312 319 327 325 323 315 303 295 293 299 300 297 306 315 271 280 260
283 321 328 321 347 344 333 339 341 345 344 339 336 336 339 340 342 341 340 337 326 311 303 303 308 311 314 318 324 325 322 314 301 294 285 285 282 279 285 301 257 290 279
177 334 337 335 330 339 340 343 343 343 344 342 336 336 338 341 341 343 337 334 330 325 315 311 310 314 319 322 324 322 319 313 303 294 280 267 260 253 261 263 232 177 52
222 317 309 320 330 336 334 334 340 340 344 340 338 338 338 339 337 331 331 333 335 329 326 325 326 325 321 318 320 318 315 314 302 289 281 256 246 219 221 222 179 131 124
284 320 329 329 333 337 337 337 337 334 333 336 337 335 336 338 336 334 334 339 345 344 340 334 329 326 321 318 319 319 313 312 304 284 271 252 224 196 202 201 166 130 134
310 323 332 339 338 342 341 340 333 325 328 330 331 333 337 337 340 341 345 351 347 343 339 335 331 330 329 326 323 320 314 308 299 278 256 236 200 191 191 182 157 130 129
348 340 335 342 342 340 341 337 324 327 330 332 333 336 337 340 345 347 353 351 346 341 340 337 337 336 333 332 329 326 324 320 302 259 228 207 186 182 179 168 153 142 137
351 348 346 349 343 341 343 338 328 331 334 333 334 340 342 343 345 354 352 349 348 348 348 348 347 347 346 345 343 350 351 349 338 231 194 178 171 169 161 156 144 139 134
354 349 358 356 348 347 352 343 339 337 337 338 343 350 351 351 356 357 354 355 357 358 357 356 357 356 354 355 357 353 350 347 335 184 170 161 159 159 150 144 139 143 138
347 359 358 353 354 356 355 349 344 343 347 350 358 354 355 360 360 359 1 2 4 4 2 3 4 5 6 357 354 355 1 354 118 151 153 148 145 145 137 131 138 147 150
358 0 355 1 357 354 354 352 352 355 355 2 359 359 359 0 1 4 7 10 10 12 11 10 12 14 16 13 10 12 17 48 126 140 142 137 137 130 129 127 133 134 139
357 3 4 1 354 356 357 359 360 358 1 5 360 0 2 4 5 10 13 16 15 17 17 18 21 22 21 24 30 32 53 60 120 133 134 135 134 126 122 123 126 120 141
2 12 1 355 357 1 2 3 1 360 6 4 1 3 6 6 10 15 16 12 9 13 20 25 31 32 32 34 40 52 59 92 117 128 133 135 131 124 117 121 119 118 122